Location: Beuvrequen
(50.8014°N, 1.6652°E)
Time: 03:40:16
(UTC+00:00)

USA 215 - Pass Details

Date: 16 October 2021
Orbit: 1099 x 1109 km, 123.0° (Epoch: 20 November)

Event Time Altitude Azimuth Distance (km) Brightness Sun altitude
Exits shadow 17:54:55 - 63° (ENE) 3,100 5.1 -9.6°
Reaches altitude 10° 17:55:16 10° 62° (ENE) 2,964 5.0 -9.7°
Maximum altitude 18:01:41 61° 345° (NNW) 1,244 3.6 -10.7°
Drops below altitude 10° 18:08:06 10° 267° (W) 2,966 7.1 -11.7°
Sets 18:10:37 0° 264° (W) 3,924 8.2 -12.1°
